CW8398 Weather Reports


Display with metric or nautical units.
time (UTC)temp
F
wind
direction
speed
MPH
gust
MPH
rain 1hr
in
rain 24hr
in
rain mn
in
humidity
%
barometer
mb
20260903181803 59 149 1.0 2.0 0.00 0.00 0.00 69 1001.9
20260903181303 60 150 1.0 2.0 0.00 0.00 0.00 70 1001.9
20260903180803 60 150 1.0 3.0 0.00 0.00 0.00 69 1001.9
20260903175803 60 150 1.0 2.0 0.00 0.00 0.00 68 1001.9
20260903175305 61 168 0.0 2.0 0.00 0.00 0.00 67 1001.9
20260903174803 61 168 1.0 2.0 0.00 0.00 0.00 67 1001.9
20260903174303 61 187 1.0 3.0 0.00 0.00 0.00 66 1001.9
20260903173804 62 163 1.0 3.0 0.00 0.00 0.00 66 1001.9
20260903173303 62 157 1.0 3.0 0.00 0.00 0.00 65 1001.9
20260903172803 62 133 1.0 3.0 0.00 0.00 0.00 64 1001.9
20260903172306 62 195 1.0 3.0 0.00 0.00 0.00 64 1001.9
20260903171803 63 190 2.0 5.0 0.00 0.00 0.00 63 1001.9
20260903170803 63 161 2.0 6.0 0.00 0.00 0.00 63 1001.9
20260903170303 63 162 2.0 5.0 0.00 0.00 0.00 63 1001.9
20260903165803 64 154 2.0 5.0 0.00 0.00 0.00 62 1001.7
20260903164803 64 192 3.0 6.0 0.00 0.00 0.00 60 1001.7
20260903164303 65 195 2.0 6.0 0.00 0.00 0.00 59 1001.7
20260903163804 66 191 2.0 7.0 0.00 0.00 0.00 57 1001.7
20260903163303 66 222 1.0 2.0 0.00 0.00 0.00 57 1001.7
20260903162804 66 222 0.0 1.0 0.00 0.00 0.00 55 1001.7
20260903162306 67 222 0.0 2.0 0.00 0.00 0.00 54 1001.7
20260903161803 67 186 0.0 2.0 0.00 0.00 0.00 53 1001.7
20260903160302 68 99 1.0 2.0 0.00 0.00 0.00 52 1001.9
20260903155803 68 179 2.0 6.0 0.00 0.00 0.00 52 1001.9
20260903155306 68 207 2.0 6.0 0.00 0.00 0.00 52 1002.0
20260903154803 68 178 2.0 8.0 0.00 0.00 0.00 53 1002.0
20260903154303 68 243 1.0 3.0 0.00 0.00 0.00 53 1002.0
20260903153803 67 184 1.0 3.0 0.00 0.00 0.00 52 1002.4
20260903153303 68 174 2.0 5.0 0.00 0.00 0.00 52 1002.4
20260903152803 68 192 2.0 5.0 0.00 0.00 0.00 51 1002.4
20260903152306 68 177 2.0 9.0 0.00 0.00 0.00 50 1002.4
20260903151804 68 200 3.0 10.0 0.00 0.00 0.00 50 1002.4
20260903151303 69 187 4.0 8.0 0.00 0.00 0.00 50 1002.4
20260903150805 69 173 2.0 7.0 0.00 0.00 0.00 50 1002.4
20260903150303 68 188 3.0 9.0 0.00 0.00 0.00 49 1002.4
20260903145804 68 184 4.0 8.0 0.00 0.00 0.00 51 1002.4
20260903144803 68 195 3.0 5.0 0.00 0.00 0.00 51 1002.4
20260903144303 68 199 2.0 7.0 0.00 0.00 0.00 50 1002.4
20260903143803 68 197 3.0 7.0 0.00 0.00 0.00 49 1002.4
20260903143303 68 169 3.0 12.0 0.00 0.00 0.00 49 1002.4
20260903142306 68 76 2.0 6.0 0.00 0.00 0.00 50 1002.4
20260903141803 68 231 3.0 7.0 0.00 0.00 0.00 50 1002.4
20260903141303 67 157 2.0 6.0 0.00 0.00 0.00 50 1002.4
20260903140803 67 236 2.0 9.0 0.00 0.00 0.00 51 1002.4
20260903140302 67 211 3.0 7.0 0.00 0.00 0.00 50 1002.5
20260903135803 67 221 2.0 8.0 0.00 0.00 0.00 50 1002.5
20260903135306 67 233 2.0 3.0 0.00 0.00 0.00 51 1002.5
20260903134303 68 210 2.0 10.0 0.00 0.00 0.00 50 1002.5
20260903133803 68 195 2.0 6.0 0.00 0.00 0.00 50 1002.5
20260903133303 69 162 2.0 8.0 0.00 0.00 0.00 49 1002.5
20260903132803 69 293 3.0 8.0 0.00 0.00 0.00 49 1002.5
20260903132306 69 147 1.0 6.0 0.00 0.00 0.00 50 1002.5
20260903131304 70 183 2.0 5.0 0.00 0.00 0.00 51 1002.9
20260903130304 69 233 2.0 6.0 0.00 0.00 0.00 51 1002.9
20260903125803 69 251 2.0 7.0 0.00 0.00 0.00 51 1002.9
20260903125305 69 212 3.0 7.0 0.00 0.00 0.00 50 1002.9
20260903124803 69 222 2.0 5.0 0.00 0.00 0.00 50 1002.9
20260903124303 69 278 4.0 10.0 0.00 0.00 0.00 50 1002.9
20260903123803 69 226 2.0 8.0 0.00 0.00 0.00 52 1002.9
20260903123303 68 208 2.0 7.0 0.00 0.00 0.00 51 1002.9
20260903122305 68 286 3.0 8.0 0.00 0.00 0.00 50 1002.9
20260903121803 68 205 3.0 8.0 0.00 0.00 0.00 51 1002.9
20260903120804 68 250 4.0 12.0 0.00 0.00 0.00 50 1002.9
20260903120303 68 149 3.0 7.0 0.00 0.00 0.00 51 1002.9
20260903115803 67 215 3.0 9.0 0.00 0.00 0.00 51 1002.9
20260903115305 67 274 4.0 14.0 0.00 0.00 0.00 49 1002.9
20260903114804 67 243 3.0 9.0 0.00 0.00 0.00 52 1003.0
20260903114303 67 207 3.0 7.0 0.00 0.00 0.00 52 1003.0
20260903113803 67 219 5.0 9.0 0.00 0.00 0.00 52 1003.0
20260903113303 67 176 4.0 9.0 0.00 0.00 0.00 52 1003.0
20260903112803 67 83 3.0 10.0 0.00 0.00 0.00 52 1003.0
20260903112305 67 174 3.0 12.0 0.00 0.00 0.00 52 1003.0
20260903111804 67 217 6.0 12.0 0.00 0.00 0.00 52 1003.0
20260903111304 66 177 5.0 12.0 0.00 0.00 0.00 53 1003.0
20260903110304 66 166 3.0 12.0 0.00 0.00 0.00 53 1003.1
20260903104803 66 193 3.0 9.0 0.00 0.00 0.00 55 1003.1
20260903103804 66 181 5.0 10.0 0.00 0.00 0.00 55 1003.1
20260903103303 65 234 3.0 8.0 0.00 0.00 0.00 55 1003.1
20260903102305 65 216 2.0 7.0 0.00 0.00 0.00 55 1003.4
20260903101804 65 291 3.0 12.0 0.00 0.00 0.00 55 1003.4
20260903100803 64 198 2.0 9.0 0.00 0.00 0.00 57 1003.4
20260903100304 63 174 4.0 15.0 0.00 0.00 0.00 56 1003.4
20260903095803 63 184 3.0 9.0 0.00 0.00 0.00 59 1003.4
20260903095306 63 209 3.0 9.0 0.00 0.00 0.00 57 1003.4
20260903094303 62 187 5.0 10.0 0.00 0.00 0.00 58 1003.4
20260903093803 62 249 3.0 10.0 0.00 0.00 0.00 58 1003.4
20260903092803 61 194 3.0 10.0 0.00 0.00 0.00 63 1003.4
20260903092306 61 219 2.0 7.0 0.00 0.00 0.00 63 1003.4
20260903091303 60 207 4.0 10.0 0.00 0.00 0.00 63 1003.4
20260903090803 60 233 5.0 12.0 0.00 0.00 0.00 63 1003.4
20260903085803 60 226 4.0 12.0 0.00 0.00 0.00 64 1003.6
20260903085306 60 211 5.0 13.0 0.00 0.00 0.00 66 1003.6
20260903084803 60 247 3.0 12.0 0.00 0.00 0.00 67 1003.6
20260903084304 60 220 4.0 14.0 0.00 0.00 0.00 68 1003.6
20260903083803 59 185 4.0 9.0 0.00 0.00 0.00 69 1003.6
20260903083303 59 176 3.0 7.0 0.00 0.00 0.00 70 1003.6
20260903082803 59 205 4.0 10.0 0.00 0.00 0.00 70 1003.6
20260903082306 59 196 6.0 13.0 0.00 0.00 0.00 70 1003.7
20260903081803 59 202 3.0 14.0 0.00 0.00 0.00 70 1003.7
20260903081303 59 227 3.0 8.0 0.00 0.00 0.00 71 1003.7
20260903080804 58 215 3.0 10.0 0.00 0.00 0.00 71 1003.7
20260903080303 58 185 3.0 10.0 0.00 0.00 0.00 72 1003.6
20260903075306 58 202 2.0 6.0 0.00 0.00 0.00 75 1003.6
20260903074303 58 299 2.0 10.0 0.00 0.00 0.00 76 1003.6
20260903073803 57 229 2.0 5.0 0.00 0.00 0.00 76 1003.6
20260903073304 57 260 3.0 12.0 0.00 0.00 0.00 76 1003.6
20260903072803 57 98 2.0 8.0 0.00 0.00 0.00 78 1003.6
20260903072306 57 208 3.0 8.0 0.00 0.00 0.00 79 1003.6
20260903071803 57 198 3.0 12.0 0.00 0.00 0.00 80 1003.6
20260903071304 57 200 1.0 9.0 0.00 0.00 0.00 81 1003.6
20260903070803 56 226 3.0 9.0 0.00 0.00 0.00 81 1003.6
20260903070303 56 223 5.0 13.0 0.00 0.00 0.00 81 1003.6
20260903065804 56 261 3.0 10.0 0.00 0.00 0.00 82 1003.6
20260903065306 56 252 3.0 8.0 0.00 0.00 0.00 83 1003.6
20260903064804 55 277 3.0 9.0 0.00 0.00 0.00 84 1003.6
20260903064303 55 211 2.0 8.0 0.00 0.00 0.00 84 1003.6
20260903063804 55 243 2.0 10.0 0.00 0.00 0.00 84 1003.6
20260903062306 55 230 3.0 9.0 0.00 0.00 0.00 86 1003.6
20260903061304 54 216 4.0 13.0 0.00 0.00 0.00 86 1003.6
20260903060803 54 196 2.0 13.0 0.00 0.00 0.00 86 1003.6
20260903060303 54 220 3.0 12.0 0.00 0.00 0.00 87 1003.9
20260903055804 54 206 4.0 10.0 0.00 0.00 0.00 87 1003.9
20260903055306 54 229 4.0 10.0 0.00 0.00 0.00 87 1003.9
20260903054803 54 219 3.0 12.0 0.00 0.00 0.00 87 1003.9
20260903054304 53 222 3.0 9.0 0.00 0.00 0.00 87 1003.9
20260903053804 53 214 3.0 7.0 0.00 0.00 0.00 88 1003.9
20260903053304 53 211 2.0 9.0 0.00 0.00 0.00 88 1003.9
20260903052803 53 290 2.0 9.0 0.00 0.00 0.00 88 1003.9
20260903052307 53 209 4.0 9.0 0.00 0.00 0.00 88 1003.9
20260903051803 53 204 2.0 8.0 0.00 0.00 0.00 88 1003.9
20260903051303 53 156 2.0 10.0 0.00 0.00 0.00 88 1003.9
20260903050804 53 175 3.0 10.0 0.00 0.00 0.00 89 1003.9
20260903050303 52 181 2.0 8.0 0.00 0.00 0.00 88 1003.9
20260903045803 52 201 2.0 9.0 0.00 0.00 0.00 88 1003.9
20260903045306 52 173 3.0 8.0 0.00 0.00 0.00 88 1003.9
20260903044304 52 233 1.0 8.0 0.00 0.00 0.00 88 1003.9
20260903042804 52 175 2.0 7.0 0.00 0.00 0.00 88 1003.9
20260903042306 52 193 2.0 7.0 0.00 0.00 0.00 88 1003.9
20260903041803 52 169 1.0 3.0 0.00 0.00 0.00 87 1003.9
20260903041303 52 175 0.0 2.0 0.00 0.00 0.00 87 1003.9
20260903040804 52 184 1.0 3.0 0.00 0.00 0.00 87 1003.9
20260903035803 52 217 1.0 3.0 0.00 0.00 0.00 87 1004.1
20260903035306 52 166 1.0 3.0 0.00 0.00 0.00 86 1004.1
20260903034803 52 150 1.0 3.0 0.00 0.00 0.00 86 1004.1
20260903034303 52 170 1.0 3.0 0.00 0.00 0.00 86 1004.5
20260903033804 53 168 0.0 3.0 0.00 0.00 0.00 86 1004.5
20260903033303 53 178 1.0 3.0 0.00 0.00 0.00 86 1004.5
20260903032306 53 169 0.0 2.0 0.00 0.00 0.00 85 1004.5
20260903031804 53 183 0.0 1.0 0.00 0.00 0.00 85 1004.5
20260903031304 53 186 2.0 9.0 0.00 0.00 0.00 85 1004.5
20260903030803 53 201 1.0 5.0 0.00 0.00 0.00 85 1004.5
20260903030304 53 177 0.0 5.0 0.00 0.00 0.00 85 1004.5
20260903025804 53 194 0.0 3.0 0.00 0.00 0.00 84 1004.5
20260903025306 53 180 2.0 6.0 0.00 0.00 0.00 84 1004.5
20260903024804 53 204 2.0 6.0 0.00 0.00 0.00 84 1004.5
20260903024303 53 190 0.0 2.0 0.00 0.00 0.00 84 1004.5
20260903023803 54 189 2.0 5.0 0.00 0.00 0.00 84 1004.5
20260903023304 54 194 2.0 7.0 0.00 0.00 0.00 84 1004.5
20260903022804 54 207 2.0 6.0 0.00 0.00 0.00 84 1004.5
20260903022306 54 214 1.0 5.0 0.00 0.00 0.00 83 1004.5
20260903021804 54 214 1.0 5.0 0.00 0.00 0.00 83 1004.5
20260903021304 54 194 2.0 3.0 0.00 0.00 0.00 83 1004.5
20260903020804 54 211 1.0 3.0 0.00 0.00 0.00 82 1004.5
20260903020303 54 172 1.0 3.0 0.00 0.00 0.00 82 1004.5
20260903015804 54 181 1.0 3.0 0.00 0.00 0.00 82 1004.5
20260903015305 54 168 1.0 3.0 0.00 0.00 0.00 82 1004.5
20260903014303 54 152 2.0 6.0 0.00 0.00 0.00 82 1004.5
20260903013804 54 188 1.0 7.0 0.00 0.00 0.00 81 1004.5
20260903013304 54 197 2.0 7.0 0.00 0.00 0.00 81 1004.5
20260903012803 54 179 2.0 6.0 0.00 0.00 0.00 81 1004.5
20260903012306 55 212 2.0 6.0 0.00 0.00 0.00 81 1004.5
20260903011804 55 176 1.0 6.0 0.00 0.00 0.00 81 1004.5
20260903011304 55 173 1.0 3.0 0.00 0.00 0.00 80 1004.5
20260903010804 55 177 2.0 5.0 0.00 0.00 0.00 80 1004.5
20260903010303 55 207 1.0 5.0 0.00 0.00 0.00 80 1004.7
20260903005803 55 170 2.0 5.0 0.00 0.00 0.00 80 1004.7
20260903005306 55 192 2.0 5.0 0.00 0.00 0.00 79 1004.7
20260903004804 55 191 2.0 7.0 0.00 0.00 0.00 79 1004.7
20260903004304 55 188 4.0 9.0 0.00 0.00 0.00 79 1004.7
20260903003804 55 166 2.0 8.0 0.00 0.00 0.00 79 1004.7
20260903003305 55 189 2.0 7.0 0.00 0.00 0.00 79 1004.7
20260903002306 56 188 2.0 7.0 0.00 0.00 0.00 79 1004.7
20260903000304 56 191 3.0 10.0 0.00 0.00 0.00 78 1004.7
20260902235804 56 193 2.0 5.0 0.00 0.00 0.00 78 1004.8
20260902235305 56 217 3.0 10.0 0.00 0.00 0.00 78 1004.8
20260902234804 56 188 3.0 7.0 0.00 0.00 0.00 78 1004.8
20260902234303 56 196 2.0 7.0 0.00 0.00 0.00 78 1004.7
20260902233803 56 165 3.0 6.0 0.00 0.00 0.00 78 1004.8
20260902233303 56 176 3.0 8.0 0.00 0.00 0.00 77 1004.8
20260902232805 56 193 2.0 6.0 0.00 0.00 0.00 77 1004.8
20260902232306 56 150 3.0 8.0 0.00 0.00 0.00 77 1004.8
20260902231303 56 220 2.0 9.0 0.00 0.00 0.00 77 1004.7
20260902230803 56 201 3.0 9.0 0.00 0.00 0.00 77 1004.7
20260902230304 56 152 2.0 7.0 0.00 0.00 0.00 77 1004.9
20260902225803 56 174 2.0 7.0 0.00 0.00 0.00 77 1004.9
20260902225306 56 216 3.0 12.0 0.00 0.00 0.00 77 1004.9
20260902224802 56 167 2.0 12.0 0.00 0.00 0.00 77 1004.9
20260902224302 56 184 2.0 6.0 0.00 0.00 0.00 77 1004.9
20260902223802 56 133 2.0 7.0 0.00 0.00 0.00 77 1004.9
20260902223302 56 169 1.0 5.0 0.00 0.00 0.00 77 1004.9
20260902222305 56 190 1.0 3.0 0.00 0.00 0.00 77 1004.9
20260902221802 56 167 1.0 3.0 0.00 0.00 0.00 77 1004.9
20260902221302 56 187 2.0 6.0 0.00 0.00 0.00 77 1004.9
20260902220814 56 162 2.0 3.0 0.00 0.00 0.00 76 1004.9
20260902220302 56 156 1.0 2.0 0.00 0.00 0.00 76 1004.9
20260902215802 56 153 1.0 3.0 0.00 0.00 0.00 76 1004.9
20260902214802 56 204 0.0 3.0 0.00 0.00 0.00 75 1005.0
20260902213802 56 158 1.0 3.0 0.00 0.00 0.00 75 1004.9
20260902213302 56 159 2.0 5.0 0.00 0.00 0.00 75 1004.9
20260902212305 56 196 1.0 3.0 0.00 0.00 0.00 75 1004.9
20260902211802 56 178 1.0 3.0 0.00 0.00 0.00 75 1004.9
20260902211302 56 150 1.0 2.0 0.00 0.00 0.00 75 1004.9
20260902205802 57 153 1.0 3.0 0.00 0.00 0.00 74 1004.9
20260902205306 57 162 0.0 2.0 0.00 0.00 0.00 74 1004.9
20260902204802 57 204 0.0 1.0 0.00 0.00 0.00 73 1004.9
20260902204302 57 225 0.0 0.0 0.00 0.00 0.00 73 1004.9
20260902203802 58 225 0.0 3.0 0.00 0.00 0.00 72 1004.9
20260902203301 58 157 1.0 3.0 0.00 0.00 0.00 72 1004.9
20260902202802 59 171 0.0 0.0 0.00 0.00 0.00 72 1005.0
20260902202306 59 171 0.0 1.0 0.00 0.00 0.00 71 1005.0
20260902201802 59 171 0.0 0.0 0.00 0.00 0.00 70 1005.0
20260902200802 60 171 0.0 3.0 0.00 0.00 0.00 69 1005.0
20260902200302 60 216 0.0 3.0 0.00 0.00 0.00 68 1005.0
20260902195802 60 190 0.0 3.0 0.00 0.00 0.00 68 1005.0
20260902195306 60 157 0.0 3.0 0.00 0.00 0.00 68 1005.0
20260902194802 61 209 0.0 1.0 0.00 0.00 0.00 68 1005.0
20260902193302 61 193 1.0 3.0 0.00 0.00 0.00 67 1005.0
20260902192802 61 244 0.0 3.0 0.00 0.00 0.00 67 1005.0
20260902191802 61 157 2.0 3.0 0.00 0.00 0.00 67 1005.0
20260902190802 62 197 1.0 3.0 0.00 0.00 0.00 67 1004.7
20260902190302 62 228 1.0 8.0 0.00 0.00 0.00 67 1004.7
20260902185802 62 224 1.0 8.0 0.00 0.00 0.00 67 1004.7
20260902185306 62 325 1.0 3.0 0.00 0.00 0.00 67 1004.7
20260902184802 62 269 1.0 3.0 0.00 0.00 0.00 67 1004.7
20260902184302 62 248 0.0 1.0 0.00 0.00 0.00 66 1004.7
20260902183802 62 236 1.0 3.0 0.00 0.00 0.00 66 1004.7
20260902183302 63 297 0.0 2.0 0.00 0.00 0.00 66 1004.7
20260902182802 63 220 1.0 3.0 0.00 0.00 0.00 66 1004.7
20260902182305 63 157 1.0 5.0 0.00 0.00 0.00 67 1004.7